Temp
58 58 59 59 58 58 58 59 58 59 58 58 57 56 56 56 57 57 57 58 58 58 57 58 58 58 58 58 57 56 58 59 61 59 61 61 61 62 63 63 64 64 64
54 55 56 58 56 57 56 56 58 58 57 56 55 55 55 55 55 55 56 57 57 57 58 57 57 58 58 57 56 55 55 58 58 54 54 55 61 63 63 63 62 64 62
53 53 54 56 54 54 55 56 57 57 57 56 55 54 54 54 55 55 56 56 56 56 56 56 57 57 58 57 56 55 55 54 58 57 53 52 51 56 61 61 63 62 62
52 53 53 55 53 54 54 55 56 56 56 55 54 54 53 53 54 54 54 55 55 56 55 55 56 56 56 56 57 57 55 54 53 57 57 55 53 51 52 60 61 61 61
52 53 53 54 54 53 54 54 55 55 56 55 54 54 52 53 53 53 53 54 55 55 55 55 55 55 55 56 56 56 55 55 54 54 54 54 54 54 52 51 57 60 61
52 53 54 54 54 54 54 54 54 55 55 54 54 53 52 53 52 53 53 54 54 55 55 54 54 54 54 55 56 56 55 55 55 55 54 53 53 54 52 52 54 54 58
52 52 52 53 53 54 54 54 54 54 55 55 54 54 53 53 52 53 53 53 53 54 54 53 53 54 54 54 55 56 55 55 54 55 55 55 55 56 54 53 53 52 57
51 52 52 52 53 53 54 54 54 54 54 54 54 54 53 53 53 53 53 52 52 53 54 53 53 53 53 53 55 55 55 54 53 54 54 54 55 55 53 52 50 48 52
51 52 52 52 52 53 53 53 53 53 53 53 53 53 53 52 52 52 52 52 52 52 53 53 53 53 53 53 53 53 53 54 54 54 53 53 54 53 53 52 51 48 46
50 51 51 51 51 51 51 52 52 52 53 53 53 53 52 52 52 52 51 51 52 52 52 52 52 52 52 52 52 52 53 52 53 53 52 52 52 52 51 51 51 50 48
48 49 49 49 49 50 50 51 51 51 52 52 52 53 53 52 52 52 52 51 51 51 51 51 51 51 51 51 51 51 51 50 51 51 50 50 50 49 49 49 49 48 48
48 48 49 49 49 49 50 50 50 50 51 51 51 51 51 51 52 52 52 52 51 51 50 50 50 50 50 51 50 49 50 49 49 49 49 49 49 48 48 47 47 47 47
49 48 48 49 49 50 49 49 50 50 50 50 49 50 50 50 50 50 51 51 51 51 51 49 49 49 49 49 49 49 49 49 49 49 48 48 48 47 47 46 45 45 45
47 47 48 48 48 49 49 49 49 49 49 48 48 48 49 49 49 49 49 49 50 49 50 50 49 48 49 48 49 49 48 48 48 48 47 47 47 46 46 45 45 44 43
45 46 47 47 47 47 48 48 49 48 48 47 46 47 48 48 48 48 48 48 48 49 49 48 48 48 47 48 48 48 48 48 48 47 46 46 45 44 45 44 44 42 41
45 47 47 47 47 46 46 46 46 47 46 46 46 46 47 47 47 47 47 47 47 48 48 48 47 46 47 47 48 48 46 46 46 46 46 45 43 44 45 46 45 43 41
46 47 46 46 46 46 46 45 46 46 45 44 45 45 45 45 46 46 45 45 46 46 45 46 45 45 46 46 48 48 48 45 46 45 45 44 44 44 44 45 47 47 45
46 47 46 46 46 46 46 46 45 44 44 44 44 44 44 44 44 43 43 44 44 43 44 44 44 44 45 45 47 47 48 47 46 45 46 46 46 44 43 42 42 43 43
47 46 46 45 45 44 44 43 43 43 42 42 43 44 43 42 42 42 42 42 42 43 43 43 43 43 44 44 45 46 46 45 45 44 45 44 44 44 45 40 40 41 41
45 45 45 44 43 44 43 42 42 42 42 42 43 43 42 41 41 41 41 41 41 41 42 42 43 42 43 43 44 46 45 43 43 44 43 43 44 44 45 44 41 39 42
45 45 43 42 42 43 41 40 41 40 43 43 42 42 42 41 41 40 40 40 40 40 41 41 42 42 43 43 44 46 44 42 42 41 42 43 43 45 46 45 43 42 45
43 43 41 41 42 41 40 39 39 42 41 41 40 40 40 40 41 39 39 39 39 38 39 39 40 42 42 42 43 45 46 45 41 41 43 42 42 44 44 45 46 44 43
41 41 40 39 41 41 40 38 41 41 41 40 39 39 39 39 39 38 38 38 38 38 38 38 38 40 40 41 42 43 44 44 43 42 42 43 43 43 44 44 44 45 43
40 40 39 38 38 40 40 39 40 40 39 38 38 38 38 40 39 38 37 37 37 37 37 37 37 38 39 39 41 41 42 41 41 41 41 42 42 43 42 42 42 41 42
38 38 37 36 37 39 39 40 39 38 37 37 37 37 37 37 37 37 37 38 39 38 38 38 37 36 37 40 42 43 42 41 41 43 40 39 38 37 37 36 37 38 37
37 36 35 35 36 36 37 38 38 36 35 35 36 36 37 37 36 36 37 40 42 43 43 42 42 41 41 42 42 42 42 43 43 41 37 37 36 36 36 35 35 35 37
MSLP
1018.51 1018.52 1018.48 1018.54 1018.71 1019.05 1019.43 1019.71 1019.94 1020.22 1020.62 1020.96 1021.12 1021.21 1021.21 1021.17 1021.07 1021.00 1020.93 1020.77 1020.67 1020.51 1020.34 1020.17 1019.90 1019.59 1019.28 1019.00 1018.82 1018.42 1017.82 1017.33 1017.06 1016.34 1015.64 1015.39 1015.43 1015.35 1015.31 1015.26 1015.15 1015.05 1015.09
1018.74 1018.50 1018.41 1018.50 1018.78 1019.04 1019.42 1019.79 1020.00 1020.34 1020.77 1021.05 1021.20 1021.28 1021.22 1021.16 1021.17 1020.96 1020.73 1020.58 1020.48 1020.36 1020.14 1020.09 1019.93 1019.47 1019.20 1018.98 1018.91 1018.54 1018.06 1017.63 1017.39 1017.13 1016.63 1015.79 1015.40 1015.19 1015.39 1015.38 1015.20 1015.07 1015.07
1019.05 1018.79 1018.57 1018.62 1018.97 1019.21 1019.49 1019.85 1020.15 1020.47 1020.66 1020.90 1021.07 1021.15 1021.22 1021.16 1020.99 1020.82 1020.67 1020.47 1020.30 1020.17 1019.95 1019.92 1019.77 1019.53 1019.25 1019.01 1018.87 1018.60 1018.26 1017.91 1017.38 1017.29 1017.25 1016.65 1016.21 1015.76 1015.39 1015.29 1015.15 1015.06 1015.02
1019.25 1019.18 1018.98 1018.89 1019.08 1019.38 1019.75 1020.00 1020.18 1020.34 1020.55 1020.76 1020.96 1021.01 1021.03 1021.06 1020.77 1020.73 1020.49 1020.25 1020.14 1019.90 1019.69 1019.61 1019.54 1019.47 1019.25 1019.12 1018.79 1018.50 1018.35 1018.14 1017.61 1017.31 1017.21 1017.25 1017.18 1016.53 1015.77 1015.40 1015.13 1015.08 1014.91
1019.32 1019.24 1019.18 1019.17 1019.33 1019.54 1019.81 1020.04 1020.18 1020.28 1020.41 1020.63 1020.77 1020.75 1020.68 1020.66 1020.49 1020.39 1020.14 1019.88 1019.68 1019.59 1019.43 1019.28 1019.24 1019.15 1019.08 1018.86 1018.66 1018.41 1018.23 1018.01 1017.79 1017.57 1017.37 1017.22 1017.02 1016.80 1016.54 1015.38 1014.97 1014.97 1014.90
1019.45 1019.41 1019.33 1019.36 1019.48 1019.68 1019.84 1019.97 1020.07 1020.09 1020.23 1020.24 1020.28 1020.33 1020.24 1020.04 1019.97 1019.69 1019.62 1019.34 1019.24 1019.05 1018.97 1018.95 1018.82 1018.88 1018.83 1018.65 1018.42 1018.15 1018.02 1017.80 1017.61 1017.40 1017.25 1017.19 1017.01 1016.58 1016.37 1015.88 1015.25 1014.83 1014.60
1019.52 1019.53 1019.55 1019.53 1019.56 1019.62 1019.65 1019.70 1019.74 1019.63 1019.73 1019.77 1019.80 1019.81 1019.75 1019.63 1019.44 1019.16 1018.99 1018.85 1018.68 1018.46 1018.33 1018.45 1018.39 1018.42 1018.32 1018.39 1018.09 1017.86 1017.78 1017.66 1017.40 1017.11 1016.97 1016.84 1016.82 1016.79 1016.49 1016.13 1015.58 1015.18 1014.77
1019.54 1019.51 1019.51 1019.49 1019.51 1019.53 1019.50 1019.47 1019.49 1019.36 1019.36 1019.35 1019.36 1019.39 1019.36 1019.21 1018.93 1018.67 1018.51 1018.40 1018.31 1018.09 1017.89 1017.89 1017.88 1017.94 1017.87 1017.91 1017.78 1017.58 1017.47 1017.42 1017.24 1016.99 1016.86 1016.84 1016.76 1016.85 1016.75 1016.41 1016.09 1015.44 1014.92
1019.65 1019.65 1019.66 1019.65 1019.59 1019.52 1019.45 1019.40 1019.35 1019.33 1019.29 1019.24 1019.14 1019.04 1018.93 1018.73 1018.37 1018.11 1018.01 1017.93 1017.76 1017.57 1017.40 1017.35 1017.31 1017.33 1017.38 1017.35 1017.38 1017.27 1017.13 1017.06 1016.96 1016.81 1016.76 1016.76 1016.65 1016.70 1016.70 1016.64 1016.47 1016.13 1015.24
1019.95 1019.98 1019.97 1019.93 1019.85 1019.70 1019.58 1019.52 1019.51 1019.37 1019.25 1019.08 1018.92 1018.73 1018.53 1018.21 1018.01 1017.83 1017.60 1017.51 1017.36 1017.15 1016.99 1016.93 1016.93 1016.95 1016.98 1016.94 1016.98 1016.85 1016.77 1016.82 1016.66 1016.60 1016.53 1016.40 1016.33 1016.36 1016.44 1016.44 1016.33 1016.16 1015.82
1019.94 1019.97 1020.02 1020.04 1020.11 1019.98 1019.82 1019.68 1019.49 1019.31 1019.12 1019.04 1018.81 1018.58 1018.24 1017.92 1017.70 1017.55 1017.29 1017.06 1016.86 1016.64 1016.47 1016.38 1016.33 1016.29 1016.33 1016.29 1016.35 1016.40 1016.52 1016.57 1016.41 1016.28 1016.16 1015.99 1016.03 1015.96 1015.99 1016.05 1016.02 1015.90 1015.89
1020.19 1020.22 1020.10 1020.05 1019.99 1019.96 1019.77 1019.61 1019.40 1019.32 1019.23 1019.08 1018.85 1018.51 1018.14 1017.79 1017.54 1017.25 1016.95 1016.70 1016.39 1016.12 1016.06 1015.99 1015.86 1015.67 1015.59 1015.64 1015.68 1015.78 1015.92 1015.95 1015.91 1015.91 1015.97 1015.75 1015.75 1015.64 1015.67 1015.72 1015.58 1015.52 1015.53
1019.73 1019.83 1019.90 1019.92 1019.90 1019.90 1019.86 1019.81 1019.62 1019.41 1019.19 1018.97 1018.68 1018.33 1017.95 1017.63 1017.31 1016.99 1016.65 1016.32 1016.05 1015.75 1015.54 1015.46 1015.25 1015.02 1014.90 1014.90 1014.91 1015.04 1015.21 1015.29 1015.25 1015.23 1015.26 1015.17 1015.32 1015.25 1015.28 1015.38 1015.38 1015.41 1015.41
1019.78 1019.87 1019.99 1019.97 1019.90 1019.90 1019.89 1019.75 1019.58 1019.40 1019.15 1018.86 1018.52 1018.06 1017.70 1017.43 1017.05 1016.69 1016.36 1016.09 1015.74 1015.47 1015.14 1014.85 1014.63 1014.44 1014.27 1014.27 1014.28 1014.29 1014.35 1014.41 1014.44 1014.52 1014.59 1014.61 1014.68 1014.66 1014.77 1014.96 1015.01 1015.13 1015.21
1019.82 1019.84 1019.95 1020.02 1019.98 1019.91 1019.87 1019.73 1019.56 1019.33 1019.14 1018.81 1018.44 1018.06 1017.74 1017.33 1016.85 1016.44 1016.11 1015.73 1015.42 1015.09 1014.77 1014.46 1014.11 1013.87 1013.78 1013.68 1013.62 1013.63 1013.60 1013.59 1013.54 1013.66 1013.76 1013.86 1013.93 1014.09 1014.30 1014.50 1014.51 1014.78 1014.85
1019.65 1019.79 1019.92 1019.93 1019.85 1019.91 1019.95 1019.78 1019.55 1019.29 1019.17 1018.81 1018.39 1017.97 1017.59 1017.18 1016.81 1016.39 1015.99 1015.55 1015.04 1014.63 1014.37 1014.12 1013.80 1013.45 1013.26 1013.02 1012.93 1013.01 1012.98 1012.95 1012.93 1012.92 1013.03 1013.16 1013.34 1013.51 1013.66 1013.75 1013.87 1014.03 1014.15
1019.26 1019.36 1019.56 1019.72 1019.77 1019.80 1019.72 1019.51 1019.23 1019.04 1018.82 1018.59 1018.26 1017.89 1017.49 1017.00 1016.54 1016.14 1015.69 1015.21 1014.85 1014.52 1014.11 1013.76 1013.48 1013.08 1012.88 1012.61 1012.39 1012.26 1012.16 1012.17 1012.09 1012.16 1012.27 1012.32 1012.39 1012.61 1012.89 1013.07 1013.12 1013.20 1013.35
1019.35 1019.38 1019.42 1019.56 1019.59 1019.46 1019.22 1019.06 1018.97 1018.75 1018.56 1018.36 1018.14 1017.73 1017.29 1016.95 1016.58 1016.18 1015.71 1015.22 1014.81 1014.46 1014.03 1013.57 1013.21 1012.83 1012.52 1012.28 1012.06 1011.89 1011.71 1011.58 1011.54 1011.61 1011.66 1011.71 1011.72 1012.00 1012.19 1012.32 1012.38 1012.42 1012.46
1019.29 1019.41 1019.51 1019.55 1019.56 1019.57 1019.33 1019.08 1018.82 1018.63 1018.28 1017.99 1017.65 1017.27 1017.02 1016.57 1016.22 1015.98 1015.59 1015.18 1014.72 1014.30 1013.86 1013.54 1013.13 1012.69 1012.23 1011.97 1011.72 1011.49 1011.24 1011.06 1010.92 1011.01 1011.13 1011.23 1011.19 1011.33 1011.50 1011.81 1011.73 1011.82 1011.65
1019.10 1019.25 1019.35 1019.43 1019.52 1019.38 1019.25 1019.19 1018.82 1018.53 1018.21 1017.92 1017.60 1017.12 1016.70 1016.22 1015.87 1015.57 1015.19 1014.94 1014.58 1014.19 1013.82 1013.29 1012.89 1012.50 1012.03 1011.67 1011.39 1011.16 1010.95 1010.77 1010.67 1010.57 1010.63 1010.69 1010.60 1010.61 1010.79 1010.77 1010.87 1010.90 1010.76
1019.16 1019.33 1019.41 1019.42 1019.49 1019.43 1019.31 1019.10 1018.70 1018.43 1018.08 1017.78 1017.33 1016.77 1016.39 1016.01 1015.50 1015.21 1015.02 1014.62 1014.29 1014.00 1013.58 1013.05 1012.62 1012.32 1011.98 1011.55 1011.21 1010.95 1010.65 1010.55 1010.47 1010.19 1010.06 1010.08 1010.13 1010.00 1009.92 1010.05 1010.09 1009.89 1010.06
1019.09 1019.11 1019.39 1019.33 1019.25 1019.32 1019.27 1018.99 1018.76 1018.13 1017.90 1017.50 1017.02 1016.64 1016.24 1015.84 1015.41 1015.12 1014.74 1014.62 1014.28 1013.88 1013.63 1013.18 1012.61 1012.24 1011.90 1011.52 1011.10 1010.72 1010.50 1010.35 1010.21 1009.96 1009.76 1009.68 1009.63 1009.51 1009.39 1009.34 1009.25 1009.48 1009.85
1019.42 1019.38 1019.40 1019.37 1019.18 1018.91 1019.13 1018.67 1017.88 1017.79 1017.55 1017.04 1016.55 1016.15 1015.82 1015.56 1015.38 1015.21 1014.72 1014.31 1014.09 1013.80 1013.38 1013.16 1012.70 1012.09 1011.73 1011.33 1010.89 1010.52 1010.30 1010.04 1009.89 1009.74 1009.45 1009.21 1009.07 1008.99 1008.89 1008.77 1008.73 1008.78 1008.93
1019.26 1019.59 1019.53 1019.07 1018.91 1018.64 1018.32 1018.35 1017.68 1017.34 1017.12 1016.94 1016.50 1015.97 1015.63 1015.27 1015.01 1014.81 1014.65 1014.32 1013.86 1013.50 1013.18 1012.81 1012.33 1011.84 1011.28 1010.89 1010.62 1010.31 1010.00 1009.78 1009.60 1009.42 1009.09 1008.78 1008.60 1008.45 1008.34 1008.31 1008.29 1008.39 1008.41
1019.14 1019.12 1019.30 1019.07 1018.44 1018.42 1017.81 1017.69 1017.31 1017.02 1016.70 1016.59 1016.32 1015.77 1015.37 1015.01 1014.66 1014.42 1014.25 1013.98 1013.46 1013.13 1012.69 1012.32 1012.09 1011.74 1011.13 1010.48 1010.20 1009.87 1009.56 1009.30 1009.05 1008.83 1008.65 1008.57 1008.33 1008.16 1008.05 1007.95 1007.90 1007.93 1008.03
1019.05 1018.91 1018.83 1018.90 1018.36 1017.99 1017.71 1017.13 1016.94 1016.81 1016.53 1016.29 1015.83 1015.43 1015.09 1014.65 1014.19 1013.91 1013.45 1013.06 1012.52 1012.15 1011.87 1011.63 1011.45 1011.00 1010.65 1010.16 1009.73 1009.44 1009.13 1008.78 1008.50 1008.29 1008.24 1008.16 1007.96 1007.84 1007.61 1007.48 1007.45 1007.39 1007.34
Wind_Speed
5 5 6 5 5 5 6 7 7 6 2 0 0 0 0 1 1 2 4 4 4 5 5 4 5 5 4 7 8 5 8 6 8 5 6 2 3 4 3 3 4 6 6
6 6 5 3 4 3 6 6 6 4 2 1 1 0 0 1 2 3 3 2 4 4 4 5 5 7 5 6 6 7 5 5 3 4 3 4 1 4 3 2 4 8 6
6 6 5 2 1 3 5 5 4 3 3 3 1 0 1 1 2 1 3 2 4 4 4 4 5 6 5 5 4 5 6 5 3 3 2 3 3 8 1 4 6 7 7
4 4 5 4 1 2 3 3 3 3 3 3 2 3 1 2 2 3 3 5 5 4 3 4 4 5 4 6 4 5 4 5 4 2 2 1 2 3 5 2 6 4 6
4 5 5 5 3 3 3 2 2 3 3 4 5 3 4 5 5 5 8 7 5 5 4 4 4 4 3 4 7 5 5 4 4 3 1 1 2 4 4 9 7 4 4
4 4 4 4 2 2 2 3 3 4 4 5 6 7 8 8 6 6 6 6 5 4 5 5 4 4 4 5 5 5 6 5 5 5 4 2 3 4 3 4 8 7 3
3 3 4 3 2 1 1 2 3 5 4 5 6 7 9 9 9 9 6 7 6 4 5 5 5 4 4 6 6 5 5 6 5 6 4 3 2 4 5 6 6 6 6
3 4 4 3 2 2 1 2 3 4 4 4 6 6 7 6 7 8 7 6 6 7 6 6 6 7 6 6 6 5 4 6 5 6 4 4 4 4 4 3 5 6 5
3 3 3 3 3 4 4 3 3 3 3 4 4 5 5 6 7 8 7 6 7 6 8 8 7 8 7 7 7 5 6 5 5 4 4 5 5 4 4 4 4 4 6
4 3 3 3 2 2 2 3 3 3 3 4 4 5 6 5 6 6 8 7 8 8 7 8 8 8 8 8 7 6 7 7 5 5 6 6 5 4 3 4 4 5 6
3 2 3 3 3 3 4 4 5 5 5 5 6 7 7 6 6 6 7 7 7 7 7 8 9 9 10 9 8 8 8 9 8 7 7 8 6 4 4 3 4 5 4
2 1 2 3 4 4 4 4 4 4 5 6 6 7 7 6 6 7 7 6 8 6 7 8 9 10 10 9 10 10 9 10 9 8 7 9 5 7 5 4 6 5 4
2 2 2 2 2 3 3 4 5 5 5 5 6 7 7 7 8 8 8 8 7 8 8 7 9 10 11 10 10 10 10 10 10 9 9 9 7 8 6 5 5 4 4
4 3 1 2 3 4 5 5 5 5 6 6 6 7 7 7 8 8 7 7 7 8 8 8 9 10 10 10 10 10 11 11 10 10 10 10 10 10 8 6 7 5 5
5 4 1 3 4 4 5 5 6 7 6 7 7 8 8 8 8 7 7 7 7 7 8 9 9 9 8 7 10 10 12 12 12 10 10 10 11 12 11 5 7 6 5
6 3 2 4 5 5 5 5 6 6 6 7 8 8 7 7 8 8 8 8 8 9 8 8 9 9 6 11 15 13 9 10 10 10 10 10 11 13 16 16 14 9 7
6 3 3 4 4 5 5 6 6 6 7 6 7 8 8 8 9 9 9 9 9 9 9 8 8 9 8 12 14 14 10 9 10 9 8 8 7 12 10 14 16 16 16
2 4 4 3 4 4 5 5 4 5 5 6 6 6 7 9 9 8 8 9 7 8 8 8 7 8 7 11 12 12 10 10 10 10 10 10 10 9 10 10 10 10 10
3 4 3 3 3 5 5 5 6 6 5 6 6 7 7 8 8 8 9 8 7 7 7 6 8 8 8 9 10 8 6 8 10 8 9 9 10 11 16 9 11 11 11
2 4 4 2 4 4 4 5 6 5 6 6 8 7 6 6 8 7 8 5 6 8 6 8 6 8 8 9 9 7 4 7 6 6 6 11 12 13 16 12 11 12 11
4 4 4 4 5 5 4 5 5 6 6 7 7 7 6 6 6 6 4 5 7 7 7 7 7 7 7 7 10 8 4 4 6 6 6 5 11 14 15 17 11 12 8
4 3 4 5 4 4 4 6 7 6 6 6 7 7 6 6 5 6 5 6 6 6 7 7 7 5 6 9 9 10 8 7 5 6 6 6 10 12 14 12 17 18 14
5 3 3 5 5 4 4 6 6 7 8 7 7 6 6 5 5 5 6 4 4 5 5 4 6 6 4 5 9 10 9 8 5 5 8 13 12 13 11 14 14 14 8
3 3 5 5 7 5 5 6 8 6 6 8 7 6 6 7 4 3 4 4 4 4 4 5 6 6 6 4 4 4 5 7 6 7 6 7 9 11 9 8 7 5 6
3 3 5 6 7 7 7 6 6 5 6 7 7 7 5 5 5 4 5 4 5 5 4 4 5 6 7 6 11 10 6 5 6 9 3 4 3 4 4 4 5 5 4
4 5 5 6 8 7 9 8 5 5 5 8 6 6 6 5 4 4 6 11 15 14 12 11 8 5 11 15 14 12 11 12 12 5 4 5 5 6 5 5 5 5 8
Wind_Direction
297 286 271 248 220 209 188 184 175 189 157 96 321 237 325 333 325 354 353 356 353 352 353 343 332 341 333 346 345 316 342 346 345 323 337 19 34 96 24 73 42 27 17
314 315 288 221 202 187 191 184 197 165 171 170 179 185 289 273 284 293 296 294 339 338 335 341 332 338 333 343 346 330 328 334 357 350 308 353 60 359 48 33 7 11 8
340 348 352 6 162 188 182 196 189 187 195 193 164 224 240 269 295 284 298 291 311 308 317 317 317 321 330 325 324 315 336 321 318 47 353 339 341 335 11 1 358 6 7
357 2 10 14 12 224 182 186 193 211 219 194 216 228 236 270 245 275 275 296 288 287 288 296 303 314 313 315 323 311 311 312 317 317 107 128 259 326 310 312 319 346 9
7 15 27 40 62 111 162 196 237 246 235 212 228 241 255 252 270 273 284 279 278 268 271 268 283 284 294 299 300 301 302 295 295 299 318 283 243 244 256 310 317 315 357
13 19 12 37 58 135 186 215 233 252 235 227 234 239 251 264 273 275 277 283 286 283 267 259 249 266 277 291 294 293 293 285 286 279 257 241 280 286 268 282 307 312 318
36 17 19 14 12 11 306 256 242 271 264 258 257 254 257 264 267 271 273 285 285 271 265 244 245 253 253 275 281 277 280 285 285 289 274 264 277 300 294 286 297 302 312
355 354 352 349 344 340 311 273 268 290 308 302 295 290 277 268 264 264 267 268 265 270 267 251 238 248 243 253 265 268 272 283 280 282 273 297 296 302 287 292 308 303 288
33 30 5 14 4 3 358 346 346 335 330 318 305 300 291 282 280 279 269 268 269 267 263 251 246 244 242 241 251 252 256 265 275 276 307 293 283 286 281 275 275 286 299
349 355 5 11 13 38 32 35 16 352 334 329 323 319 317 314 299 293 284 277 276 268 265 260 250 251 248 244 245 249 250 254 258 259 264 268 273 278 272 266 263 257 271
338 340 2 12 1 13 21 10 10 356 344 337 327 324 317 316 307 290 284 275 274 267 261 256 251 246 244 237 237 245 255 252 255 249 250 258 253 260 264 259 259 256 249
355 8 43 31 37 27 20 11 358 346 328 319 318 316 311 314 308 300 294 288 278 277 267 263 255 250 244 240 236 240 241 243 247 251 252 259 256 255 254 249 249 246 238
172 149 117 77 20 349 351 354 346 333 320 317 317 313 314 319 314 307 302 300 289 284 279 261 257 255 248 240 234 234 242 241 242 242 241 249 247 255 252 248 249 243 239
227 194 206 328 329 336 336 335 328 322 315 317 314 314 314 311 306 307 309 305 302 292 290 281 269 256 252 244 241 235 238 241 240 238 237 240 235 241 245 243 248 243 241
211 201 241 318 310 316 323 324 316 317 321 318 316 311 310 310 310 312 312 310 305 300 298 296 286 269 254 249 241 237 239 241 242 236 233 232 230 230 233 229 237 230 238
203 216 295 304 315 325 313 303 299 308 321 317 311 311 314 315 311 310 313 309 306 306 303 299 293 287 265 249 244 239 239 238 240 241 237 233 229 235 235 232 229 214 215
196 232 272 282 281 281 274 289 309 316 317 314 313 314 314 316 315 316 319 317 316 312 306 303 299 291 285 272 264 250 242 238 238 237 234 237 223 220 222 235 237 233 228
249 287 289 290 272 284 304 312 300 302 308 312 305 303 311 312 309 310 310 308 311 311 310 310 310 304 298 289 283 270 256 248 247 242 243 245 248 223 213 220 229 228 228
283 275 274 278 303 302 303 316 321 318 313 301 300 305 307 309 313 316 315 308 303 312 305 302 304 301 300 299 292 282 258 255 255 245 247 246 254 236 224 218 231 235 237
259 284 302 308 317 313 325 322 314 313 302 302 303 300 297 301 309 308 311 303 301 301 306 309 303 301 304 311 303 286 264 271 276 272 261 252 253 254 237 225 224 237 240
317 319 318 310 304 312 321 308 308 300 295 296 297 300 303 302 295 307 302 313 317 315 314 315 322 318 315 313 313 304 273 265 277 279 285 270 260 264 255 237 228 230 235
314 317 307 303 299 302 306 298 291 289 291 293 296 297 302 313 315 316 313 317 323 324 319 320 318 310 315 317 314 314 297 272 261 277 281 278 267 264 265 261 246 242 240
302 312 304 299 293 285 274 289 284 303 307 309 308 307 307 303 302 309 312 320 319 320 318 315 311 310 304 310 317 317 310 300 281 268 270 281 284 275 270 263 263 250 231
281 279 309 305 298 281 273 254 283 288 294 294 294 297 300 304 298 295 289 294 304 308 302 308 307 309 308 293 302 306 309 299 294 288 280 274 276 271 260 266 266 254 233
267 248 274 275 276 294 292 278 284 295 295 290 287 286 271 273 289 271 267 267 264 242 275 274 271 292 298 301 309 314 304 291 280 289 260 275 264 275 269 248 247 243 227
285 295 283 276 282 287 288 287 280 278 279 290 287 282 287 281 270 280 289 252 250 260 262 274 275 266 263 294 302 307 307 307 303 288 273 266 256 261 266 255 253 231 238